Greenville, MS

11:44 PM CST on November 24, 2017 (GMT -0600)
Mid Delta Regional

Weather History for KGLH - November, 2013

Change the Weather History Date:

Saturday, November 30, 2013

  Actual Average Record
Temperature  
Mean Temperature 45 °F 49 °F  
Max Temperature 62 °F 59 °F 79 °F (1933)
Min Temperature 27 °F 39 °F 20 °F (1955)
Degree Days  
Heating Degree Days 20 17  
Month to date heating degree days 443 350  
Since 1 July heating degree days 534 462  
Cooling Degree Days 0 0  
Month to date cooling degree days 10 12  
Year to date cooling degree days 2247 2186  
Moisture  
Dew Point 31 °F    
Average Humidity 64    
Maximum Humidity 100    
Minimum Humidity 27    
Precipitation  
Precipitation 0.00 in 0.24 in 2.00 in (1996)
Month to date precipitation 3.53 5.06  
Year to date precipitation 48.31 47.02  
Sea Level Pressure  
Sea Level Pressure 30.38 in    
Wind  
Wind Speed 4 mph (South)    
Max Wind Speed 13 mph    
Max Gust Speed 16 mph    
Visibility 10 miles    
Events      
T = Trace of Precipitation, MM = Missing Value Source: NWS Daily Summary

Daily Weather History Graph

Daily Weather History Graph

Search for Another Location

Airport or City:

Trip Planner

Search our weather history database for the weather conditions in past years. The results will help you decide how hot, cold, wet, or windy it might be!

Date:

Astronomy

Nov. 30, 2013 Rise Set
Actual Time 6:49 AM CST 4:56 PM CST
Civil Twilight 6:22 AM CST 5:23 PM CST
Nautical Twilight 5:51 AM CST 5:53 PM CST
Astronomical Twilight 5:21 AM CST 6:23 PM CST
Moon 4:07 AM CST (11/30) 3:14 PM CST (11/30)
Length of Visible Light 11h 00m
Length of Day
10h 06m
Waning Crescent, 7% of the Moon is Illuminated
Nov 30
Waning Crescent
Dec 2
New
Dec 9
First Quarter
Dec 17
Full
Dec 25
Last Quarter

Hourly Weather History & Observations

Time (CST) Temp. Windchill Dew Point Humidity Pressure Visibility Wind Dir Wind Speed Gust Speed Precip Events Conditions
12:53 AM 33.1 °F - 30.0 °F 89% 30.45 in 10.0 mi Calm Calm - N/A   Clear
1:53 AM 30.9 °F - 28.0 °F 89% 30.45 in 10.0 mi Calm Calm - N/A   Clear
2:53 AM 28.9 °F - 27.0 °F 92% 30.45 in - Calm Calm - N/A   Clear
3:53 AM 28.9 °F - 28.0 °F 96% 30.44 in 10.0 mi Calm Calm - N/A   Clear
4:53 AM 28.9 °F - 27.0 °F 92% 30.44 in 10.0 mi Calm Calm - N/A   Clear
5:53 AM 28.0 °F - 26.1 °F 92% 30.45 in 5.0 mi Calm Calm - N/A   Clear
6:53 AM 28.0 °F - 25.0 °F 88% 30.47 in - Calm Calm - N/A   Clear
7:53 AM 34.0 °F - 32.0 °F 92% 30.48 in 10.0 mi Calm Calm - N/A   Clear
8:53 AM 41.0 °F 37.1 °F 33.1 °F 73% 30.48 in 10.0 mi SSE 5.8 mph - N/A   Clear
9:53 AM 48.0 °F - 35.1 °F 61% 30.48 in - South 10.4 mph - N/A   Clear
10:53 AM 53.1 °F - 34.0 °F 48% 30.45 in 10.0 mi SSW 6.9 mph - N/A   Clear
11:53 AM 57.0 °F - 34.0 °F 42% 30.41 in 10.0 mi South 10.4 mph - N/A   Clear
12:53 PM 60.1 °F - 30.9 °F 33% 30.37 in 10.0 mi SSW 12.7 mph 16.1 mph N/A   Clear
1:53 PM 61.0 °F - 27.0 °F 27% 30.33 in 10.0 mi SSW 10.4 mph - N/A   Clear
2:53 PM 61.0 °F - 28.0 °F 29% 30.32 in 10.0 mi South 9.2 mph - N/A   Clear
3:53 PM 59.0 °F - 33.1 °F 38% 30.30 in 10.0 mi South 6.9 mph - N/A   Clear
4:53 PM 53.1 °F - 35.1 °F 50% 30.29 in 10.0 mi SSE 5.8 mph - N/A   Clear
5:53 PM 50.0 °F - 33.1 °F 52% 30.28 in 10.0 mi South 4.6 mph - N/A   Clear
6:53 PM 48.9 °F - 35.1 °F 59% 30.29 in 10.0 mi South 4.6 mph - N/A   Clear
7:53 PM 45.0 °F 42.6 °F 34.0 °F 65% 30.29 in 10.0 mi SSE 4.6 mph - N/A   Clear
8:53 PM 43.0 °F - 33.1 °F 68% 30.29 in 10.0 mi Calm Calm - N/A   Clear
9:53 PM 42.1 °F 39.2 °F 34.0 °F 73% 30.27 in 10.0 mi SSE 4.6 mph - N/A   Clear
10:53 PM 44.1 °F 42.5 °F 36.0 °F 73% 30.27 in - SSE 3.5 mph - N/A   Clear
11:53 PM 45.0 °F - 36.0 °F 71% 30.27 in - Calm Calm - N/A   Clear